When you browse on this site, cookies collect data to enhance your experience and personalize the content and advertising you see.
Visit our Privacy Policy to learn more. By continuing to use the site, you agree to this use of cookies and data.
  • In Austria
  • List of Countries
  • For 7 days
  • Water Temperature
  • Satellite Maps
  • Weather Map
  • News
  • Weather Widgets
  • user-avatar
    Login

    Hourly Weather Sydney

    Today, 25 May, Saturday

    Time Temperature Precipitation Wind Pressure Humidity
    00:00 +17°C° 0 mm 2 mps 765 mmHg 44%
    01:00 +17°C° 0 mm 2 mps 764 mmHg 43%
    02:00 +16°C° 0 mm 2 mps 764 mmHg 45%
    03:00 +16°C° 0 mm 2 mps 764 mmHg 46%
    04:00 +14°C° 0 mm 3 mps 764 mmHg 47%
    05:00 +15°C° 0 mm 2 mps 764 mmHg 48%
    06:00 +15°C° 0 mm 2 mps 764 mmHg 50%
    07:00 +15°C° 0 mm 2 mps 764 mmHg 51%
    08:00 +17°C° 0 mm 2 mps 764 mmHg 47%
    09:00 +19°C° 0 mm 2 mps 764 mmHg 43%
    10:00 +21°C° 0 mm 2 mps 764 mmHg 34%
    11:00 +24°C° 0 mm 2 mps 763 mmHg 32%
    12:00 +25°C° 0 mm 1 mps 762 mmHg 29%
    13:00 +27°C° 0 mm 1 mps 762 mmHg 26%
    14:00 +27°C° 0 mm 2 mps 761 mmHg 28%
    15:00 +26°C° 0 mm 3 mps 761 mmHg 29%
    16:00 +25°C° 0 mm 3 mps 761 mmHg 31%
    17:00 +24°C° 0 mm 3 mps 761 mmHg 34%
    18:00 +21°C° 0 mm 3 mps 761 mmHg 37%
    19:00 +19°C° 0 mm 3 mps 761 mmHg 40%
    20:00 +19°C° 0 mm 4 mps 761 mmHg 40%
    21:00 +19°C° 0 mm 4 mps 761 mmHg 41%
    22:00 +18°C° 0 mm 4 mps 761 mmHg 41%
    23:00 +18°C° 0 mm 4 mps 761 mmHg 44%

    Tomorrow, 26 May, Sunday

    Time Temperature Precipitation Wind Pressure Humidity
    00:00 +17°C° 0 mm 4 mps 761 mmHg 46%
    01:00 +17°C° 0 mm 4 mps 760 mmHg 48%
    02:00 +17°C° 0 mm 4 mps 760 mmHg 48%
    03:00 +16°C° 0 mm 5 mps 760 mmHg 48%
    04:00 +16°C° 0 mm 5 mps 760 mmHg 48%
    05:00 +16°C° 0 mm 5 mps 760 mmHg 49%
    06:00 +16°C° 0 mm 5 mps 760 mmHg 50%
    07:00 +16°C° 0 mm 5 mps 760 mmHg 51%
    08:00 +17°C° 0.2 mm 4 mps 760 mmHg 54%
    09:00 +18°C° 0.2 mm 4 mps 760 mmHg 57%
    10:00 +19°C° 0.2 mm 4 mps 760 mmHg 60%
    11:00 +20°C° 0 mm 3 mps 760 mmHg 52%
    12:00 +22°C° 0 mm 3 mps 759 mmHg 44%
    13:00 +25°C° 0 mm 3 mps 759 mmHg 36%
    14:00 +23°C° 0 mm 4 mps 759 mmHg 37%
    15:00 +23°C° 0 mm 4 mps 758 mmHg 38%
    16:00 +22°C° 0 mm 4 mps 758 mmHg 39%
    17:00 +21°C° 0 mm 4 mps 759 mmHg 42%
    18:00 +19°C° 0 mm 4 mps 759 mmHg 46%
    19:00 +18°C° 0 mm 4 mps 759 mmHg 49%
    20:00 +17°C° 0 mm 4 mps 759 mmHg 52%
    21:00 +15°C° 0 mm 4 mps 759 mmHg 55%
    22:00 +15°C° 0 mm 4 mps 759 mmHg 59%
    23:00 +14°C° 0 mm 4 mps 759 mmHg 60%

    Day after tomorrow, 27 May, Monday

    Time Temperature Precipitation Wind Pressure Humidity
    00:00 +13°C° 0 mm 4 mps 759 mmHg 61%
    01:00 +13°C° 0 mm 3 mps 759 mmHg 63%
    02:00 +12°C° 0 mm 3 mps 758 mmHg 62%
    03:00 +12°C° 0 mm 3 mps 758 mmHg 61%
    04:00 +12°C° 0 mm 3 mps 757 mmHg 61%
    05:00 +12°C° 0 mm 4 mps 757 mmHg 58%
    06:00 +12°C° 0 mm 4 mps 757 mmHg 56%
    07:00 +12°C° 0 mm 5 mps 757 mmHg 53%
    08:00 +14°C° 0 mm 6 mps 756 mmHg 49%
    09:00 +16°C° 0 mm 7 mps 756 mmHg 44%
    10:00 +17°C° 0 mm 7 mps 756 mmHg 40%
    11:00 +16°C° 0 mm 9 mps 756 mmHg 39%
    12:00 +16°C° 0 mm 10 mps 756 mmHg 38%
    13:00 +14°C° 0 mm 11 mps 755 mmHg 37%
    14:00 +14°C° 0 mm 11 mps 756 mmHg 36%
    15:00 +14°C° 0 mm 10 mps 756 mmHg 34%
    16:00 +13°C° 0 mm 10 mps 756 mmHg 33%
    17:00 +13°C° 0 mm 9 mps 757 mmHg 36%
    18:00 +12°C° 0 mm 9 mps 758 mmHg 39%
    19:00 +11°C° 0 mm 8 mps 759 mmHg 41%
    20:00 +10°C° 0 mm 8 mps 759 mmHg 42%
    21:00 +10°C° 0 mm 8 mps 760 mmHg 44%
    22:00 +10°C° 0 mm 8 mps 760 mmHg 45%
    23:00 +9°C° 0 mm 8 mps 760 mmHg 46%

    28 May, Tuesday

    Time Temperature Precipitation Wind Pressure Humidity
    00:00 +9°C° 0 mm 7 mps 760 mmHg 47%
    01:00 +9°C° 0 mm 7 mps 760 mmHg 48%
    02:00 +9°C° 0 mm 7 mps 760 mmHg 49%
    03:00 +8°C° 0 mm 7 mps 760 mmHg 50%
    04:00 +8°C° 0 mm 7 mps 760 mmHg 52%
    05:00 +8°C° 0 mm 6 mps 760 mmHg 52%
    06:00 +7°C° 0 mm 6 mps 761 mmHg 53%
    07:00 +7°C° 0 mm 6 mps 761 mmHg 54%
    08:00 +8°C° 0 mm 5 mps 761 mmHg 51%
    09:00 +10°C° 0 mm 5 mps 761 mmHg 47%
    10:00 +12°C° 0 mm 5 mps 761 mmHg 43%
    11:00 +14°C° 0 mm 5 mps 760 mmHg 40%
    12:00 +15°C° 0 mm 4 mps 760 mmHg 36%
    13:00 +17°C° 0 mm 4 mps 759 mmHg 33%
    14:00 +18°C° 0 mm 4 mps 759 mmHg 34%
    15:00 +18°C° 0 mm 4 mps 758 mmHg 35%
    16:00 +18°C° 0 mm 4 mps 758 mmHg 36%
    17:00 +16°C° 0 mm 5 mps 758 mmHg 39%
    18:00 +14°C° 0 mm 5 mps 759 mmHg 43%
    19:00 +13°C° 0 mm 5 mps 759 mmHg 47%
    20:00 +13°C° 0 mm 5 mps 759 mmHg 49%
    21:00 +12°C° 0 mm 5 mps 759 mmHg 51%
    22:00 +12°C° 0 mm 5 mps 759 mmHg 53%
    23:00 +11°C° 0 mm 6 mps 758 mmHg 54%

    29 May, Wednesday

    Time Temperature Precipitation Wind Pressure Humidity
    00:00 +10°C° 0 mm 6 mps 758 mmHg 55%
    01:00 +10°C° 0 mm 6 mps 757 mmHg 56%
    02:00 +10°C° 0 mm 6 mps 757 mmHg 56%
    03:00 +11°C° 0 mm 7 mps 756 mmHg 56%
    04:00 +11°C° 0 mm 7 mps 756 mmHg 56%
    05:00 +11°C° 0 mm 7 mps 756 mmHg 56%
    06:00 +11°C° 0 mm 6 mps 756 mmHg 56%
    07:00 +11°C° 0 mm 6 mps 756 mmHg 56%
    08:00 +14°C° 0 mm 6 mps 756 mmHg 52%
    09:00 +15°C° 0 mm 6 mps 756 mmHg 47%
    10:00 +17°C° 0 mm 7 mps 756 mmHg 42%
    11:00 +17°C° 0 mm 7 mps 755 mmHg 40%
    12:00 +18°C° 0 mm 8 mps 754 mmHg 37%
    13:00 +20°C° 0 mm 8 mps 754 mmHg 34%
    14:00 +18°C° 0 mm 8 mps 754 mmHg 36%
    15:00 +17°C° 0 mm 8 mps 754 mmHg 38%
    16:00 +17°C° 0 mm 8 mps 754 mmHg 39%
    17:00 +16°C° 0 mm 8 mps 755 mmHg 42%
    18:00 +15°C° 0 mm 7 mps 755 mmHg 45%
    19:00 +14°C° 0 mm 6 mps 756 mmHg 48%
    20:00 +12°C° 0.1 mm 7 mps 756 mmHg 51%
    21:00 +11°C° 0.1 mm 7 mps 757 mmHg 55%
    22:00 +11°C° 0.1 mm 7 mps 757 mmHg 59%
    23:00 +10°C° 0 mm 7 mps 757 mmHg 57%

    30 May, Thursday

    Time Temperature Precipitation Wind Pressure Humidity
    00:00 +9°C° 0 mm 8 mps 757 mmHg 55%
    01:00 +9°C° 0 mm 8 mps 758 mmHg 53%
    02:00 +7°C° 0 mm 8 mps 758 mmHg 53%
    03:00 +8°C° 0 mm 7 mps 758 mmHg 52%
    04:00 +6°C° 0 mm 7 mps 759 mmHg 52%
    05:00 +6°C° 0 mm 7 mps 759 mmHg 51%
    06:00 +6°C° 0 mm 7 mps 760 mmHg 51%
    07:00 +6°C° 0 mm 7 mps 760 mmHg 50%
    08:00 +7°C° 0 mm 8 mps 761 mmHg 48%
    09:00 +9°C° 0 mm 8 mps 761 mmHg 45%
    10:00 +11°C° 0 mm 8 mps 762 mmHg 42%
    11:00 +12°C° 0 mm 8 mps 761 mmHg 40%
    12:00 +13°C° 0 mm 8 mps 761 mmHg 38%
    13:00 +15°C° 0 mm 8 mps 761 mmHg 35%
    14:00 +14°C° 0 mm 7 mps 761 mmHg 37%
    15:00 +14°C° 0 mm 7 mps 762 mmHg 38%
    16:00 +14°C° 0 mm 7 mps 762 mmHg 39%
    17:00 +12°C° 0 mm 7 mps 763 mmHg 44%
    18:00 +11°C° 0 mm 7 mps 764 mmHg 48%
    19:00 +10°C° 0 mm 7 mps 765 mmHg 52%
    20:00 +10°C° 0 mm 8 mps 765 mmHg 51%
    21:00 +9°C° 0 mm 8 mps 765 mmHg 51%
    22:00 +9°C° 0 mm 8 mps 766 mmHg 50%
    23:00 +9°C° 0 mm 8 mps 766 mmHg 51%
    Show more